Total_Precipitation_Accumulation
0.29 0.59 1.13 1.45 1.95 2.39 2.04 1.60 1.06 0.79 0.82 0.85 0.75 0.73 0.94 1.15 1.67 2.92 3.01 2.72 1.84 1.73 2.07 2.23 2.16 1.87 1.75 1.75 1.90 1.86 1.81 1.89 2.07 2.16 2.23 2.30 2.38 2.38 2.40 2.55 2.71 2.97 3.20 3.31 3.32 3.31 3.32 3.28 3.24
0.50 0.93 1.20 1.43 2.16 2.35 1.96 1.50 0.98 0.79 0.69 0.69 0.72 0.68 0.90 1.06 1.19 1.94 2.45 2.20 1.42 1.27 1.55 1.68 1.84 1.75 1.64 1.51 1.62 1.69 1.64 1.70 1.91 2.23 2.44 2.50 2.64 2.62 2.65 2.84 2.95 3.06 3.05 3.16 3.20 3.17 3.06 3.06 3.02
0.60 0.88 1.14 1.50 1.70 1.72 1.44 1.08 0.69 0.59 0.49 0.51 0.61 0.57 0.87 1.37 1.33 1.73 1.95 1.69 1.28 1.16 1.28 1.54 1.54 1.46 1.52 1.48 1.56 1.66 1.73 1.76 1.79 2.08 2.39 2.63 2.85 2.90 2.98 3.11 3.22 3.23 3.05 2.93 3.00 3.01 2.77 2.80 2.85
0.77 0.98 1.00 1.04 1.04 0.95 0.76 0.67 0.49 0.47 0.43 0.41 0.50 0.73 1.21 1.37 1.32 1.46 1.42 1.29 1.01 1.01 1.07 1.24 1.47 1.48 1.51 1.50 1.53 1.54 1.69 1.83 1.93 2.18 2.48 2.70 2.93 3.11 3.28 3.26 3.33 3.29 3.06 2.96 2.92 2.86 2.71 2.76 2.85
0.92 1.09 1.07 0.76 0.62 0.70 0.60 0.48 0.40 0.45 0.39 0.43 0.53 0.98 1.69 1.66 1.21 1.13 1.14 1.04 0.89 0.86 1.01 1.18 1.41 1.49 1.52 1.47 1.51 1.58 1.69 1.91 2.09 2.16 2.30 2.45 2.66 3.01 3.16 3.12 3.14 3.01 2.87 2.79 2.80 2.82 2.71 2.67 2.79
0.80 0.97 0.88 0.53 0.44 0.51 0.48 0.39 0.37 0.35 0.36 0.48 0.66 1.04 1.77 1.74 1.39 1.31 1.31 1.14 1.06 0.87 0.86 1.09 1.34 1.48 1.51 1.47 1.58 1.70 1.90 2.09 2.22 2.15 2.16 2.27 2.51 2.78 2.82 2.77 2.76 2.70 2.74 2.74 2.78 2.79 2.64 2.52 2.79
1.00 0.79 0.54 0.34 0.32 0.38 0.38 0.34 0.36 0.33 0.40 0.58 0.75 1.16 1.69 1.89 1.62 1.42 1.50 1.57 1.35 1.11 1.02 1.09 1.18 1.24 1.37 1.50 1.64 1.90 2.13 2.25 2.25 2.12 2.11 2.31 2.45 2.51 2.46 2.51 2.53 2.58 2.61 2.66 2.67 2.60 2.50 2.48 2.68
0.55 0.50 0.37 0.23 0.21 0.30 0.28 0.27 0.28 0.32 0.45 0.52 0.70 1.21 1.76 1.73 1.57 1.53 1.68 1.84 1.78 1.44 1.36 1.25 1.27 1.28 1.24 1.46 1.82 2.05 2.22 2.34 2.32 2.26 2.35 2.52 2.61 2.53 2.58 2.53 2.61 2.66 2.75 2.81 2.90 2.84 2.68 2.62 2.62
0.34 0.35 0.30 0.19 0.17 0.20 0.18 0.23 0.28 0.26 0.30 0.47 0.68 1.03 1.23 1.17 1.30 1.53 1.77 2.00 2.21 1.99 1.72 1.55 1.38 1.41 1.52 1.58 1.79 2.22 2.46 2.49 2.47 2.69 2.91 3.03 2.95 2.73 2.89 2.71 3.02 3.09 3.14 3.20 3.33 3.24 2.96 2.82 2.73
0.32 0.28 0.17 0.10 0.10 0.10 0.14 0.20 0.26 0.24 0.43 0.70 0.84 0.98 0.93 1.10 1.23 1.51 1.76 1.93 2.10 2.26 1.85 1.69 1.50 1.46 1.56 1.73 2.20 2.56 2.40 2.53 2.78 3.07 3.23 3.46 3.39 3.31 2.86 3.14 3.54 3.82 4.11 4.14 4.14 4.00 3.58 3.02 2.77
0.21 0.16 0.08 0.06 0.05 0.06 0.12 0.13 0.19 0.25 0.60 1.06 1.21 1.25 1.19 1.17 1.33 1.63 1.93 2.05 1.97 2.06 1.89 1.84 1.86 1.93 1.85 2.01 2.33 2.63 2.62 2.80 2.94 3.01 3.20 3.42 3.15 3.07 3.19 3.54 3.87 4.15 4.38 4.34 4.48 4.58 3.97 3.49 3.31
0.10 0.06 0.06 0.05 0.04 0.05 0.10 0.12 0.16 0.26 0.57 0.85 1.14 1.13 1.28 1.28 1.43 1.74 2.11 2.35 2.40 2.55 2.32 2.19 2.26 2.30 2.32 2.29 2.46 2.60 2.58 2.73 2.90 3.03 3.02 3.15 3.32 3.40 3.55 3.95 3.95 4.12 4.27 4.65 4.42 4.72 4.42 3.97 3.62
0.06 0.05 0.05 0.06 0.05 0.06 0.10 0.19 0.20 0.31 0.42 0.62 0.88 0.92 1.00 1.32 1.73 2.16 2.60 2.67 2.88 3.16 3.15 2.91 2.63 2.51 2.60 2.81 2.81 2.63 2.76 2.90 3.00 3.20 3.18 3.13 3.45 3.65 3.76 3.89 4.11 3.82 3.87 4.34 4.55 4.38 4.57 4.60 4.27
0.07 0.06 0.05 0.07 0.08 0.09 0.13 0.26 0.33 0.43 0.50 0.56 0.83 1.09 1.15 1.51 1.87 2.48 3.20 3.18 3.05 3.33 3.45 3.24 3.11 2.97 3.03 3.31 3.43 3.30 3.14 3.40 3.37 3.30 3.23 3.31 3.55 3.96 4.17 4.10 4.19 3.94 3.73 3.96 4.22 4.26 4.94 4.82 4.69
0.08 0.09 0.09 0.11 0.14 0.16 0.22 0.46 0.58 0.58 0.54 0.63 0.94 1.28 1.54 1.70 2.03 2.42 2.89 3.30 3.49 3.61 3.52 3.46 3.44 3.42 3.61 3.74 3.70 3.48 3.40 3.28 3.37 3.46 3.49 3.50 3.47 3.92 4.18 4.36 4.33 4.06 3.81 4.05 4.23 4.45 4.73 4.50 4.40
0.10 0.15 0.19 0.19 0.20 0.21 0.32 0.77 0.72 0.59 0.59 0.92 1.11 1.46 1.81 1.88 2.14 2.58 2.99 3.58 3.89 3.89 3.87 3.87 3.70 3.86 4.08 4.19 4.07 3.90 3.73 3.54 3.36 3.30 3.49 3.56 3.65 3.92 4.17 4.10 4.01 4.11 4.05 4.33 4.57 4.68 4.75 4.65 4.48
0.19 0.20 0.23 0.24 0.24 0.21 0.28 0.56 0.67 0.62 0.83 1.12 1.36 1.70 2.01 2.27 2.73 3.25 3.53 3.65 4.02 4.36 4.51 4.55 4.49 4.42 4.47 4.51 4.40 4.43 4.40 4.16 3.81 3.67 3.71 3.79 3.72 3.73 3.97 3.95 4.08 4.17 4.19 4.30 3.93 4.52 4.57 4.66 4.49
0.21 0.19 0.23 0.27 0.24 0.23 0.34 0.50 0.64 0.71 0.94 1.36 1.75 2.01 2.28 2.69 3.20 3.57 3.84 4.18 4.32 4.59 5.11 5.14 5.02 5.06 5.17 5.17 4.87 4.87 4.66 4.38 4.22 4.17 4.32 4.09 3.89 3.70 3.93 3.93 4.08 4.11 4.22 4.30 4.28 4.57 4.51 4.36 4.31
0.16 0.18 0.24 0.28 0.23 0.26 0.44 0.65 0.72 0.90 1.20 1.51 1.87 2.12 2.46 2.81 3.17 3.61 3.68 3.92 4.25 4.86 5.36 5.63 5.73 5.69 5.48 5.21 4.85 4.65 4.66 4.65 4.38 4.16 4.01 3.89 3.76 3.81 4.18 4.05 4.44 4.32 4.09 4.06 4.16 4.43 4.35 4.07 4.14
0.15 0.20 0.24 0.28 0.24 0.25 0.46 0.70 0.85 1.12 1.44 1.50 1.69 1.86 2.06 2.49 2.81 3.16 3.34 3.42 3.84 4.45 4.91 5.12 4.94 4.97 4.85 4.65 4.59 4.58 4.85 4.57 4.28 4.11 3.98 3.66 3.63 3.72 3.73 4.14 4.12 4.15 4.26 4.16 4.12 4.33 4.17 3.77 3.98
0.13 0.14 0.19 0.27 0.27 0.34 0.53 0.95 1.13 1.29 1.43 1.44 1.53 1.70 1.83 2.12 2.42 2.76 2.90 3.04 3.27 3.40 3.69 3.90 4.12 4.16 4.11 4.13 4.10 4.20 4.46 4.31 4.17 4.04 3.94 3.54 3.36 3.34 3.50 3.67 3.87 4.21 4.06 4.09 4.18 4.11 4.05 3.80 3.77
0.13 0.12 0.13 0.19 0.30 0.49 0.65 1.29 1.50 1.41 1.45 1.55 1.53 1.50 1.74 2.05 2.08 2.19 2.42 2.58 2.86 3.05 3.25 3.35 3.46 3.64 3.72 3.84 3.77 3.64 3.55 3.56 3.58 3.66 3.61 3.59 3.42 3.31 3.32 3.44 3.63 3.81 3.61 3.68 3.38 3.51 3.82 3.99 3.71
0.09 0.10 0.12 0.23 0.37 0.51 0.61 1.03 1.48 1.71 1.76 1.54 1.45 1.33 1.53 1.69 1.64 1.60 1.79 1.94 2.21 2.47 2.70 2.85 3.01 3.18 3.44 3.59 3.54 3.51 3.30 3.29 3.37 3.44 3.48 3.47 3.39 3.29 3.22 3.24 3.31 3.34 3.21 3.28 3.21 3.45 3.45 3.47 3.47
0.08 0.13 0.21 0.40 0.61 0.86 0.72 0.89 1.39 1.68 1.91 1.65 1.38 1.28 1.39 1.35 1.33 1.47 1.63 1.75 1.91 2.22 2.40 2.53 2.68 2.81 3.04 3.22 3.33 3.40 3.35 3.25 3.21 3.22 3.24 3.22 3.22 3.11 3.02 2.95 2.98 3.00 3.00 3.05 3.11 3.26 3.17 3.21 3.37
0.09 0.21 0.64 1.07 1.38 1.35 0.88 0.92 1.32 1.31 1.31 1.36 1.29 1.29 1.32 1.24 1.20 1.25 1.35 1.50 1.69 1.94 2.12 2.19 2.32 2.43 2.51 2.63 2.84 3.03 3.04 3.04 2.88 2.81 2.86 2.86 2.68 2.59 2.70 2.61 2.73 2.76 2.80 2.84 2.97 3.09 3.08 3.22 3.37
0.14 0.22 0.70 1.12 1.18 1.16 0.97 1.24 1.62 1.31 1.20 1.13 1.19 1.27 1.25 1.12 1.11 1.18 1.25 1.28 1.38 1.60 1.86 1.94 2.05 2.16 2.30 2.36 2.50 2.65 2.67 2.67 2.51 2.60 2.61 2.53 2.29 2.21 2.43 2.56 2.58 2.57 2.59 2.68 2.99 2.83 2.91 3.16 3.20
0.21 0.23 0.33 0.62 0.72 0.89 1.07 1.39 1.62 1.29 1.22 1.32 1.41 1.38 1.32 1.08 0.96 1.00 0.98 1.02 1.06 1.20 1.39 1.53 1.77 1.94 2.07 2.19 2.30 2.33 2.29 2.38 2.37 2.46 2.59 2.42 2.36 2.20 2.28 2.32 2.44 2.56 2.71 2.90 3.10 2.93 3.05 3.33 3.23
0.19 0.20 0.28 0.54 0.80 0.98 1.06 1.47 1.81 1.71 1.51 1.42 1.48 1.34 1.08 0.92 0.83 0.78 0.75 0.77 0.86 0.99 1.15 1.36 1.52 1.57 1.70 1.94 2.09 2.02 2.24 2.33 2.33 2.35 2.29 2.26 2.31 2.27 2.14 2.10 2.20 2.31 2.44 2.66 2.84 2.74 2.90 3.17 3.15
0.21 0.25 0.35 0.52 0.59 0.84 1.21 1.45 1.39 1.39 1.29 1.33 1.30 1.12 0.92 0.82 0.78 0.75 0.74 0.78 0.82 0.88 1.06 1.28 1.53 1.67 1.67 1.77 1.95 2.08 2.16 2.27 2.28 2.20 2.09 2.14 2.21 2.24 2.15 2.13 2.17 2.18 2.15 2.24 2.42 2.42 2.67 2.73 2.77
0.19 0.22 0.33 0.51 0.50 0.56 0.88 1.17 0.82 0.85 0.86 0.94 0.98 0.86 0.82 0.82 0.77 0.81 0.85 0.83 0.85 0.96 1.12 1.32 1.51 1.69 1.77 1.95 2.21 2.35 2.24 2.21 2.24 2.18 2.05 1.96 1.93 2.02 2.11 2.16 2.08 1.98 2.05 2.22 2.25 2.29 2.52 2.61 2.57